BREEZE-M DEB (TANK), 36103

Orbit data source: Space-Track

BREEZE-M DEB (TANK), 36103 is space debris in HEO originally from a launch on Tue, 24 Nov 2009 UTC launched from the Tyuratam Missile And Space Complex (TTMTR). Debris objects in space refer to the collection of defunct objects orbiting the Earth. Examples of debris include non-operational satellites, rocket bodies, and fragments generated from explosions, collisions, or faulty payload assembly.

Loading next visibility...
Identifier
36103, 2009-065C
Orbit
HEO
Country
Flag of CISCIS
Related business
Manufacturer
Khrunichev
Mission
Spacecraft
Bus & Motor
BRIZ TANK, Unknown motor
Mass
~1,000 kg wet, 1,000 kg dry
Launch date (UTC)
2009-11-24 (16 years ago)
Launch vehicle
Unknown
Launch site
Tyuratam Missile And Space Complex (TTMTR)
Object type
Payload
Rocket body
Debris
Shape & HBR
Torus, 2.0 m
Radar Cross Section
8.218 m², Large (>1 m²)

Expand to show TLE details & history
Last TLE update: 3 days ago

TLE from 3 days ago
0 BREEZE-M DEB (TANK)
1 36103U 09065C   25255.41648241  .00002263  00000-0  59257-3 0  9996
2 36103  49.3469 267.9567 5212952 122.0870 299.1620  5.24086945293497
Epoch: 2025-09-12T09:59Z
TLE epoch observation values (Epoch: 2025-09-12T09:59:44.08Z)
Latitude
0.00002°
Longitude
126.37058°
Altitude
7,707.579 km
Speed
5.304 km/s
True Right ascension
17h 51m 52s
True Declination
0° 00' 00"
Sunlit
Object was in daylight at epoch
Visualization orbit readout
Latitude
Unknown
Longitude
Unknown
Altitude
Unknown
Speed
Unknown
Apparent Right ascension
Unknown
Apparent Declination
Unknown
Sunlit
N/A
Visualization observer readout
Local Sidereal Time
07:22:20
Azimuth
Unknown
Elevation
Unknown
Doppler factor
Unknown
Orbital elements
Apogee altitude
14,921.302 km
Perigee altitude
324.141 km
Semi-major axis
14,000.859 km
Eccentricity
0.5213
Inclination
49.3469°
RAAN
267.9567°
Arg. of periapsis
122.087°
True anomaly
237.98217°
Mean anomaly
299.162°
Eccentric anomaly
269.29624°
Mean motion
1.31012 °/min
Orbital period
274.78 mins
BSTAR
0.00059257
Loading maneuver chart data...
Computing Atmospheric mass density...
Loading historical data...
Loading historical data...
Loading historical data...
Loading historical data...
Loading historical data...
Loading historical data...
Loading historical data...
Other satellites on launch #65 in the year 2009 (2009-11-24 UTC)

Documentation

Showing up to 5 results
|